Weather History for Glasgow, United Kingdom

Change the Weather History Date:

Friday, January 27, 2012

  Actual Average Record
Temperature  
Mean Temperature 34 °F -  
Max Temperature 41 °F 44 °F 51 °F (2002)
Min Temperature 28 °F 32 °F 24 °F (2004)
Degree Days  
Heating Degree Days 30    
Moisture  
Dew Point 32 °F    
Average Humidity 92    
Maximum Humidity 100    
Minimum Humidity 81    
Precipitation  
Precipitation 0.00 in - - ()
Sea Level Pressure  
Sea Level Pressure 29.95 in    
Wind  
Wind Speed 4 mph ()    
Max Wind Speed 16 mph    
Max Gust Speed -    
Visibility 5.9 miles    
Events Rain    
Averages and records for this station are not official NWS values.
T = Trace of Precipitation, MM = Missing Value Source: Averaged Metar Reports

Daily Weather History Graph

Daily Weather History Graph

Search for Another Location

Airport:

Trip Planner

Search our weather history database for the weather conditions in past years. The results will help you decide how hot, cold, wet, or windy it might be!

Date:

Astronomy

Jan. 27, 2012 Rise Set
Actual Time 8:22 AM GMT 4:39 PM GMT
Civil Twilight 7:40 AM GMT 5:21 PM GMT
Nautical Twilight 6:54 AM GMT 6:07 PM GMT
Astronomical Twilight 6:10 AM GMT 6:50 PM GMT
Moon 9:12 AM GMT (1/27) 10:20 PM GMT (1/27)
Length of Visible Light 9h 41m
Length of Day
8h 17m
Waxing Crescent, 18% of the Moon is Illuminated
Jan 27
Waxing Crescent
Jan 31
First Quarter
Feb 7
Full
Feb 14
Last Quarter
Feb 21
New

Hourly Weather History & Observations

Time (GMT) Temp. Windchill Dew Point Humidity Pressure Visibility Wind Dir Wind Speed Gust Speed Precip Events Conditions
12:20 AM 30.2 °F - 30.2 °F 100% 29.68 in 3.1 mi Calm Calm - N/A   Mostly Cloudy
12:50 AM 30.2 °F - 30.2 °F 100% 29.68 in - SW 2.3 mph - N/A   Mostly Cloudy
1:20 AM 32.0 °F - 32.0 °F 100% 29.71 in - Calm Calm - N/A   Mostly Cloudy
1:50 AM 32.0 °F - 32.0 °F 100% 29.71 in - Calm Calm - N/A   Mostly Cloudy
2:20 AM 30.2 °F - 30.2 °F 100% 29.71 in 1.4 mi Calm Calm - N/A   Scattered Clouds
2:50 AM 32.0 °F 28.7 °F 32.0 °F 100% 29.74 in - WNW 3.5 mph - N/A   Drizzle
3:20 AM 32.0 °F 28.7 °F 32.0 °F 100% 29.74 in 4.3 mi West 3.5 mph - N/A   Mostly Cloudy
3:50 AM 30.2 °F 22.6 °F 30.2 °F 100% 29.74 in 4.3 mi SW 8.1 mph - N/A   Partly Cloudy
4:20 AM 32.0 °F 25.6 °F 32.0 °F 100% 29.77 in 6.2 mi SW 6.9 mph - N/A   Scattered Clouds
4:50 AM 35.6 °F - 33.8 °F 93% 29.77 in 6.2 mi Variable 2.3 mph - N/A   Mostly Cloudy
5:20 AM 35.6 °F - 33.8 °F 93% 29.77 in 6.2 mi Calm Calm - N/A   Partly Cloudy
5:50 AM 37.4 °F 30.3 °F 33.8 °F 87% 29.80 in 6.2 mi West 10.4 mph - N/A Rain Light Rain Showers
6:50 AM 35.6 °F 29.9 °F 33.8 °F 93% 29.80 in 6.2 mi WSW 6.9 mph - N/A   Scattered Clouds
7:20 AM 37.4 °F 29.8 °F 33.8 °F 87% 29.80 in 6.2 mi WSW 11.5 mph - N/A   Mostly Cloudy
7:50 AM 35.6 °F 27.1 °F 33.8 °F 93% 29.80 in 6.2 mi SW 12.7 mph - N/A   Scattered Clouds
8:20 AM 37.4 °F 32.1 °F 33.8 °F 87% 29.80 in 6.2 mi WSW 6.9 mph - N/A   Scattered Clouds
8:50 AM 37.4 °F 28.2 °F 33.8 °F 87% 29.83 in 6.2 mi SW 16.1 mph - N/A   Scattered Clouds
9:20 AM 35.6 °F 27.1 °F 33.8 °F 93% 29.83 in 6.2 mi SW 12.7 mph - N/A Rain Light Rain
9:50 AM 35.6 °F 28.0 °F 33.8 °F 93% 29.83 in 6.2 mi SW 10.4 mph - N/A   Mostly Cloudy
10:20 AM 35.6 °F 31.7 °F 33.8 °F 93% 29.83 in 6.2 mi SSW 4.6 mph - N/A   Mostly Cloudy
10:50 AM 35.6 °F - 33.8 °F 93% 29.86 in 6.2 mi Variable 2.3 mph - N/A   Mostly Cloudy
11:20 AM 37.4 °F 33.8 °F 33.8 °F 87% 29.86 in 5.6 mi NNE 4.6 mph - N/A   Mostly Cloudy
11:50 AM 37.4 °F 33.8 °F 35.6 °F 93% 29.89 in 5.6 mi NE 4.6 mph - N/A   Mostly Cloudy
12:20 PM 37.4 °F 32.8 °F 35.6 °F 93% 29.89 in 6.2 mi North 5.8 mph - N/A   Mostly Cloudy
12:50 PM 37.4 °F 34.9 °F 35.6 °F 93% 29.92 in 6.2 mi North 3.5 mph - N/A   Mostly Cloudy
1:20 PM 37.4 °F 34.9 °F 35.6 °F 93% 29.92 in 6.2 mi Variable 3.5 mph - N/A   Mostly Cloudy
1:50 PM 37.4 °F - 35.6 °F 93% 29.95 in 6.2 mi Variable 2.3 mph - N/A   Scattered Clouds
2:20 PM 39.2 °F 35.0 °F 35.6 °F 87% 29.98 in 6.2 mi NNE 5.8 mph - N/A   Mostly Cloudy
2:50 PM 39.2 °F - 35.6 °F 87% 29.98 in 6.2 mi Calm Calm - N/A   Mostly Cloudy
3:20 PM 41.0 °F - 35.6 °F 81% 30.01 in 6.2 mi Calm Calm - N/A   Partly Cloudy
3:50 PM 39.2 °F 37.0 °F 35.6 °F 87% 30.04 in 6.2 mi West 3.5 mph - N/A   Partly Cloudy
4:20 PM 37.4 °F - 33.8 °F 87% 30.04 in 6.2 mi Calm Calm - N/A   Partly Cloudy
4:50 PM 35.6 °F 32.8 °F 32.0 °F 87% 30.06 in 6.2 mi North 3.5 mph - N/A   Partly Cloudy
5:20 PM 33.8 °F 28.6 °F 32.0 °F 93% 30.09 in 6.2 mi North 5.8 mph - N/A   Partly Cloudy
5:50 PM 35.6 °F 30.7 °F 32.0 °F 87% 30.09 in 6.2 mi NNW 5.8 mph - N/A   Partly Cloudy
6:20 PM 35.6 °F - 30.2 °F 81% 30.12 in 6.2 mi Calm Calm - N/A   Partly Cloudy
6:50 PM 35.6 °F 31.7 °F 30.2 °F 81% 30.15 in 6.2 mi ENE 4.6 mph - N/A   Partly Cloudy
7:20 PM 33.8 °F - 28.4 °F 81% 30.15 in 6.2 mi Variable 2.3 mph - N/A   Partly Cloudy
7:50 PM 32.0 °F 27.5 °F 30.2 °F 93% 30.18 in 6.2 mi WNW 4.6 mph - N/A   Partly Cloudy
8:20 PM 32.0 °F 27.5 °F 28.4 °F 87% 30.18 in 6.2 mi WSW 4.6 mph - N/A   Partly Cloudy
8:50 PM 30.2 °F 26.7 °F 28.4 °F 93% 30.21 in 6.2 mi WSW 3.5 mph - N/A   Partly Cloudy
9:20 PM 30.2 °F 26.7 °F 28.4 °F 93% 30.24 in 6.2 mi SW 3.5 mph - N/A   Partly Cloudy
9:50 PM 28.4 °F - 26.6 °F 93% 30.24 in 6.2 mi WSW 2.3 mph - N/A   Partly Cloudy
10:20 PM 28.4 °F 23.3 °F 26.6 °F 93% 30.27 in - West 4.6 mph - N/A   Clear
10:50 PM 28.4 °F 23.3 °F 26.6 °F 93% 30.27 in - West 4.6 mph - N/A   Clear
11:20 PM 28.4 °F 24.6 °F 26.6 °F 93% 30.27 in - West 3.5 mph - N/A   Clear
11:50 PM 28.4 °F 23.3 °F 26.6 °F 93% 30.30 in - SW 4.6 mph - N/A   Clear